ANTARES R/B (43475 NORAD) Tracking and Keplerian Element Data

This shows tracking and keplerian element data for the satellite.

Feedback or suggestion? Click here.




ElementValue
Catalog43475
NameANTARES R/B
Epoch Orbit237
Epoch Day156.04067624
Epoch Year2018
RAAN72.1835
Inclination51.5791
Eccentricity0.0012308
Argument of Perigee254.4123
Mean Anonmoly106.8947
Mean Motion16.47981628
Decay Rate0.09788121
L11 43475U 18046B 18156.04067624 .09788121 12566-4 13824-3 0 9993
L22 43475 51.5791 72.1835 0012308 254.4123 106.8947 16.47981628 2373

Live tracking and technical data element details for ANTARES R/B (NORAD 43475). ANTARES R/B can be tracked NOW for your location showing map with azimuth and elevation plus other details from your city location.

Track the satellite on the map from your city or location and see movement details for azimuth, elevation, latitude, longitude, range, height, and movement on the map or in text.







IsCatalogInMostPopularTable: catalog: 43475, numindb: 45
Update: records affected: 1



GetName: 43475 ANTARES R/B

Hit Count: updated at: Sat, 17 Nov 2018 02:05:07 GMT